Weather in Mugreyevo-Nikol'skoye

Russia / Ivanovo Oblast     56°37′53″N   42°14′06″E
temp.,
°C
wind,
m/s
gust,
m/s
humid.,
%
clouds,
%
prec.,
mm/h
press.,
hPa
HPBL,
m
3 march, wed
wed300:00−4nw5139029 0.0 1005523
03:00−7nw5139128 0.0 1007531
06:00−8nw51293100 0.1 1009493
09:00−7nw51193100 0.1 1010497
12:00−5nw51088100 0.1 1010670
15:00−3wnw598691 0.1 1009808
18:00−4wsw41092100 0.1 1007347
21:00−2w5129499 0.1 1006676
4 march, thu
thu400:00−2wsw51194100 0.2 1002655
03:00−2wsw61394100 0.7 1000731
06:00−1sw51197100 0.8 995646
09:000wnw81397100 4.1 9931032
12:00−1wnw8138294 0.9 9941339
15:00−2wnw7128697 1.1 9961115
18:00−4wnw4119094 0.1 998445
21:00−6nw239592 0.3 100069
5 march, fri
fri500:00−10nnw239493 0.0 100125
03:00−12n229690 0.0 100221
06:00−14nnw229653 0.0 100420
09:00−11nw129426 0.0 1005114
12:00−6w238774 0.0 1005433
15:00−4w248487 0.0 1006689
18:00−6wsw1297100 0.1 100732
21:00−10wsw239693 0.2 100921
6 march, sat
sat600:00−9nw369588 0.3 1010187
03:00−15nw349772 0.3 101280
06:00−17nw369873 0.0 1013106
09:00−15nnw359369 0.0 1014252
12:00−11nw358550 0.0 1015676
15:00−10wnw468275 0.1 1014896
18:00−14wnw2392100 0.1 101474
21:00−15w239795 0.1 101333
7 march, sun
sun700:00−16sw239984 0.0 101237
03:00−15ssw389782 0.1 1009152
06:00−12s5129181 0.0 1005424
09:00−9ssw7139391 0.8 1000831
12:00−6ssw71392100 0.8 9951066
15:00−4ssw71293100 2.2 992956
18:00−8wnw2887100 1.6 991431
21:00−13w238783 1.6 99220